User: anonymous   Login
Location: Tyler Bend Campground
(35.9875°N, 92.7606°W)
Time: 01:58:10
(UTC-05:00)
Language:

CZ-2C R/B - Orbit

View from above orbital plane
View from above orbital plane
View from above satellite
View from above satellite

Ground track
Ground track

The orbit data is extracted from the following two-line orbital elements,

1 36089U 09061B   17174.66590209 -.00000015 +00000-0 +75814-5 0  9996
2 36089 098.0517 176.1767 0082708 026.6763 101.8727 14.49665236402556
Epoch (UTC): 23 June 2017 15:58:53
Eccentricity: 0.0082708
inclination: 98.0517°
perigee height: 668 km
apogee height: 785 km
right ascension of ascending node: 176.1767°
argument of perigee: 26.6763°
revolutions per day: 14.49665236
mean anomaly at epoch: 101.8727°
orbit number at epoch: 40255

The dashed part of the orbit path shows where the satellite is in the earth's shadow,  

DLR